Regional Weather Roundup
Issued by NWS

Home | Current Version | Previous Version | Graphics & Text | Print | Product List | Glossary On
Versions: 1 2 3 4 5 6 7 8 9 10 11 12 13 14 15 16 17 18 19 20 21 22 23 24 25 26 27 28 29 30 31 32 33 34 35 36 37 38 39 40 41 42 43 44 45 46 47 48 49 50
000
ASUS43 KMKX 291907
RWRWI

WISCONSIN REGIONAL WEATHER ROUNDUP
NATIONAL WEATHER SERVICE MILWAUKEE/SULLIVAN WI
200 PM CDT FRI MAY 29 2015

NOTE: "FAIR" INDICATES FEW OR NO CLOUDS BELOW 12,000 FEET WITH NO
SIGNIFICANT WEATHER AND/OR OBSTRUCTIONS TO VISIBILITY.

WIZ001-002-006>008-014>016-023>028-292000-
NORTHWEST WISCONSIN

CITY           SKY/WX    TMP DP  RH WIND       PRES   REMARKS
SUPERIOR ARPT  CLOUDY    66  58  76 NW10      29.91S
ASHLAND        CLOUDY    70  61  73 NW7       29.88S
HAYWARD        LGT RAIN  67  62  84 NW3       29.90F
SIREN          RAIN      65  63  94 CALM      29.91S
CUMBERLAND     RAIN      64  63  94 W3        29.91S
RICE LAKE      DRIZZLE   69  63  81 CALM      29.91F
CHETEK         CLOUDY    69  65  85 S3        29.90F
LADYSMITH      CLOUDY    69  64  84 W5        29.93S
EAU CLAIRE     CLOUDY    71  63  75 SW7       29.90S
MENOMONIE      CLOUDY    71  65  81 S8        29.90F
NEW RICHMOND   CLOUDY    70  64  82 SW9       29.90S
OSCEOLA        LGT RAIN  66  66 100 NW5       29.93R
$$

WIZ003>005-009-010-017-018-292000-
NORTH CENTRAL WISCONSIN

CITY           SKY/WX    TMP DP  RH WIND       PRES   REMARKS
MANITOWISH WTR CLOUDY    67  64  89 W8        29.90F
ARBOR VITAE    HVY RAIN  64  62  92 W7        29.91S
WOODRUFF       HVY RAIN  64  62  92 W7        29.91S
RHINELANDER    CLOUDY    72  61  68 SW14      29.92S
EAGLE RIVER    CLOUDY    69  63  80 W9        29.90S
LAND O LAKES   CLOUDY    68  63  85 SW6       29.90F
PHILLIPS       CLOUDY    66  64  90 SW6       29.91S
TOMAHAWK       CLOUDY    69  61  76 W5        29.92F
MEDFORD        CLOUDY    69  63  81 SW9       29.93R
MERRILL        CLOUDY    72  64  75 SW9       29.93S
$$

WIZ029-030-035-036-043>047-292000-
CENTRAL WISCONSIN

CITY           SKY/WX    TMP DP  RH WIND       PRES   REMARKS
WAUSAU         PTSUNNY   76  62  62 SW13      29.90F
MOSINEE        PTSUNNY   75  64  69 SW9       29.93S
MARSHFIELD     CLOUDY    76  63  64 S7        29.90F
STEVENS POINT  PTSUNNY   76  58  52 SW16G23   29.93S
WAUPACA        PTSUNNY   78  64  61 S12       29.93F HX  80
WAUTOMA        NOT AVBL
WISC RAPIDS    PTSUNNY   78  61  55 S12       29.93S HX  80
CAMP DOUGLAS   NOT AVBL
$$

WIZ011>013-019>022-031-037>040-048>050-292000-
NORTHEAST WISCONSIN

CITY           SKY/WX    TMP DP  RH WIND       PRES   REMARKS
ANTIGO         PTSUNNY   74  64  70 SW13G20   29.92F
SHAWANO        PTSUNNY   78  64  62 SW9       29.92F
OCONTO         CLOUDY    78  66  67 S5        29.91F
STURGEON BAY   CLOUDY    72  63  73 S13       29.95F
GREEN BAY      PTSUNNY   77  65  66 SW10      29.92F
MANITOWOC      NOT AVBL
APPLETON       PTSUNNY   77  63  61 SW10      29.94F
CLINTONVILLE   PTSUNNY   77  61  57 SW12      29.92F
OSHKOSH        CLOUDY    79  66  64 VRB6      29.92F HX  81
$$

WIZ032>034-041-042-053>061-292000-
SOUTHWEST WISCONSIN

CITY           SKY/WX    TMP DP  RH WIND       PRES   REMARKS
LA CROSSE      CLOUDY    78  65  63 S7        29.88F HX  80
SPARTA         CLOUDY    77  61  56 S9        29.91F
VIROQUA        CLOUDY    76  60  56 SW10      29.93F
BOSCOBEL       CLOUDY    79  62  56 CALM      29.91F HX  80
PRAIRIE DU CHI CLOUDY    78  62  58 S5        29.90F
PLATTEVILLE    CLOUDY    75  67  75 S8        29.94F
$$

WIZ056-057-062-063-064-067-068-292000-
SOUTH CENTRAL WISCONSIN

CITY           SKY/WX    TMP DP  RH WIND       PRES   REMARKS
REEDSBURG      CLOUDY    74  66  76 S5        29.93F
BARABOO/DELLS  CLOUDY    75  66  72 S5        29.93F
LONE ROCK      CLOUDY    71  67  87 CALM      29.92F THUNDER
MINERAL POINT  CLOUDY    75  68  78 W7        29.94F
MADISON        CLOUDY    75  65  70 S13       29.92F
MIDDLETON      CLOUDY    77  66  69 S10       29.93F
WATERTOWN      LGT RAIN N/A N/A N/A SW3       29.94F
MONROE         CLOUDY    73  66  78 S14       29.94F
JANESVILLE     NOT AVBL
$$

WIZ051-052-058>065-066-070>072-292000-
SOUTHEAST WISCONSIN

CITY           SKY/WX    TMP DP  RH WIND       PRES   REMARKS
MILWAUKEE      PTSUNNY   77  68  73 SE9       29.94F
WAUKESHA       PTSUNNY   73  63  68 S12       29.95F
MILWAUKEE/TIMM PTSUNNY   79  57  47 S14       29.95F HX  80
RACINE         PTSUNNY   74  64  71 S12       29.97F
BURLINGTON     PTSUNNY   78  66  66 S12G17    29.94F HX  80
KENOSHA        PTSUNNY   80  64  58 S13       29.95F HX  82
FOND DU LAC    LGT RAIN  78  66  66 S13       29.92F HX  80
SHEBOYGAN      CLOUDY    75  66  73 S14       29.95F
WEST BEND      CLOUDY    73  61  64 SE10G28   29.95F
JUNEAU         CLOUDY    75  65  70 S14       29.95F
$$

LSZ147-162-292000-
LAKE SUPERIOR

STATION/POSITION TIME  TEMP    WIND        PRES    WAVE
                       AIR SEA DIR/SP/G            HT/PER
                 (UTC) (F)     (DEG/KT/KT) (MB)    (FT/S)
W MID LAKE BUOY  1750   43 37  200/  6/  6   N/A     1
DEVILS ISLAND    1800   48     260/  6/  9   N/A
PORT WING        1800   47     300/  6/  8   N/A
SAXON HARBOR     1840   70     270/  2/  7   N/A
$$

LMZ867-665-643>646-292000-
LAKE MICHIGAN

STATION/POSITION TIME  TEMP    WIND        PRES    WAVE
                       AIR SEA DIR/SP/G            HT/PER
                 (UTC) (F)     (DEG/KT/KT) (MB)    (FT/S)
CHAMBERS ISLAND  1800   70     140/  5/ 10   N/A
N MID LAKE BUOY  1750   43 37  190/ 10/ 12   N/A     1/ 3
NORTHPORT PIER   1800   55     160/  7/ 18   N/A
SISTER BAY       1818   68     190/ 15/ 20   N/A
ALGOMA LAKESHORE 1823          160/  3/  4   N/A
KEWAUNEE LAKESHO 1800   50     170/ 10/ 12   N/A
SHEBOYGAN LAKESH 1800   51     170/ 18/ 18   N/A
PORT WASHINGTON  1800   63     190/  4/  8   N/A
ATWATER BUOY     1800   56     220/ 10/ 17   N/A
MILWAUKEE LAKESH 1800   58     150/ 16/ 17   N/A
S MID LAKE BUOY  1750   49 38  150/ 10/ 12   N/A     1
KENOSHA   LAKESH 1700   61     180/ 10/ 13   N/A
$$

TC  - TEMPERATURE IN CELSIUS
VSB - VISIBILITY IN STATUTE MILES
WCI - WIND CHILL INDEX
HX  - HEAT INDEX



USA.gov is the U.S. government's official web portal to all federal, state and local government web resources and services.